Weather in Udalovka

Russia / Altai Republic     52°21′18″N   86°56′32″E
temp.,
°C
wind,
m/s
gust,
m/s
humid.,
%
clouds,
%
prec.,
mm/h
press.,
hPa
HPBL,
m
28 june, tue
tue2801:00+18w31094100 0.7 1001589
04:00+15w61498100 6.7 1004874
07:00+13w3996100 9.1 1009661
10:00+15wsw247875 0.4 10101075
13:00+18w2454100 0.5 10101518
16:00+19nw245190 0.0 10091456
19:00+20wnw12541 0.0 10091284
22:00+13ese11840 0.0 100910
29 june, wed
wed2901:00+11se11921 0.0 100910
04:00+10se119615 0.0 100811
07:00+13se12803 0.0 1008131
10:00+21se22550 0.0 1005582
13:00+27s13350 0.0 10031384
16:00+29ese2328100 0.0 10002073
19:00+26e3845100 0.0 997410
22:00+20sw2157100 0.0 99816
30 june, thu
thu3001:00+18se2264100 0.0 99816
04:00+16w2270100 0.1 99942
07:00+13wnw2396100 0.8 1003290
10:00+13wnw2394100 0.6 1005668
13:00+13n119287 2.0 1005552
16:00+16wnw118996 1.4 1005631
19:00+16sw008487 1.6 1005392
22:00+14sse119467 0.1 100621
1 july, fri
fri101:00+12sse119757 0.1 100512
04:00+13sse119596 0.0 100520
07:00+14ssw0192100 0.0 100596
10:00+18nw1273100 0.0 1005743
13:00+18wnw2372100 0.3 1006860
16:00+20wnw345978 0.2 10051295
19:00+19wnw236131 0.3 1006922
22:00+13nw118370 0.1 100711
2 july, sat
sat201:00+11w119487 0.1 100910
04:00+11ssw118730 0.0 100911
07:00+13sse117850 0.0 100996
10:00+20sw13441 0.0 10081481
13:00+22wnw343599 0.0 10062598
16:00+21w3444100 0.0 10061740
19:00+20wnw2355100 0.0 1006972
22:00+14e1178100 0.0 100610